Location: Unspecified
(45.9570°N, 0.0000°E)
Time: 12:08:28
(UTC+00:00)

Tiangong 2 - Visible Passes

Search period start: 24 May 2019 00:00
Search period end: 03 June 2019 00:00
Orbit: 379 x 387 km, 42.8° (Epoch: 24 May)

Date Brightness Start Highest point End Pass type
(mag) Time Alt. Az. Time Alt. Az. Time Alt. Az.
24 May 1.5 20:10:05 10° WSW 20:13:04 42° S 20:16:03 10° E visible
24 May 1.8 21:46:33 10° W 21:49:05 37° SSW 21:49:05 37° SSW visible
25 May 1.4 20:46:33 10° WSW 20:49:34 45° S 20:51:43 17° ESE visible
25 May 3.6 22:23:21 10° WSW 22:23:53 13° WSW 22:23:53 13° WSW visible
26 May 1.9 21:23:12 10° W 21:26:02 31° SSW 21:26:28 30° S visible
27 May 1.7 20:23:08 10° W 20:26:06 40° S 20:29:00 10° ESE visible
27 May 3.4 22:00:17 10° WSW 22:01:11 14° SW 22:01:11 14° SW visible
28 May 2.5 20:59:55 10° WSW 21:02:30 23° SSW 21:03:42 19° SSE visible
29 May 3.6 21:37:57 10° SW 21:38:25 11° SW 21:38:25 11° SW visible
30 May 3.1 20:36:47 10° WSW 20:38:53 17° SSW 20:40:59 10° SSE visible
